{"data":{"norad_id":69459,"epoch":"2026-09-20T00:39:11.237760Z","epoch_age_seconds":66269,"freshness":"FRESH","line1":"1 69459U 26127S   26263.02721340  .00025937  00000+0  77532-3 0  9991","line2":"2 69459  53.1575 167.6256 0001418 193.0718 167.0248 15.34432603 16126","mean_motion":15.34432603,"eccentricity":0.0001418,"inclination_deg":53.1575,"raan_deg":167.6256,"arg_perigee_deg":193.0718,"mean_anomaly_deg":167.0248,"bstar":0.00077532,"rev_number":1612,"period_min":93.845764042332,"perigee_km":461.63632153067,"apogee_km":463.57635634159,"semimajor_km":6840.7433389361,"source":"CELESTRAK","updated_at":"2026-09-20T09:00:44.202062Z"}}